Location: Pian di Sc�
(43.6333°N, 11.5500°E)
Time: 18:50:13
(UTC+00:00)

Meteor 2-10 - Pass Details

Date: 07 August 2020
Orbit: 738 x 869 km, 81.2° (Epoch: 19 September)

Event Time Altitude Azimuth Distance (km) Brightness Sun altitude
Exits shadow 02:29:18 16° 185° (S) 2,013 5.7 -16.0°
Maximum altitude 02:33:44 84° 99° (E) 837 4.2 -15.4°
Drops below altitude 10° 02:39:22 10° 12° (NNE) 2,479 7.4 -14.7°
Sets 02:41:50 0° 12° (NNE) 3,433 8.2 -14.3°
